Falcon 1 - Orbit Data

View from orbit pole
View from above orbital plane
View from above satellite
View from above satellite

Ground track
Ground track

The orbit data is extracted from the following two-line orbital elements,

1 33393U 08048A   10210.69547490  .00000801  00000-0  25145-4 0  4916
2 33393 009.3464 355.6088 0013415 195.1567 164.8345 14.79160359 99163
Epoch (UTC): 16:41:29, Thursday, July 29, 2010
Eccentricity: 0.0013415
Inclination: 9.3464°
Perigee height: 622 km
Apogee height: 641 km
Right Ascension of ascending node: 355.6088°
Argument of perigee: 195.1567°
Revolutions per day: 14.79160359
Mean anomaly at epoch: 164.8345°
Orbit number at epoch: 9916

The dashed part of the orbit path shows where the satellite is in the earth's shadow,
and the full part is where it is sunlit.  


Developed and maintained by Chris Peat, Heavens-Above GmbH
Please read the updated FAQ before sending e-mail. Imprint.
DLR